Location: Newark
(46.7636°N, 1.8358°W)
Time: 21:24:40
(UTC+00:00)

Vanguard 2 Rocket - Pass Details

Date: 18 October 2019
Orbit: 554 x 3326 km, 32.9° (Epoch: 11 November)

Event Time Altitude Azimuth Distance (km) Brightness Sun altitude
Rises 16:50:56 0° 275° (W) 6,818 12.8 3.3°
Reaches altitude 10° 16:59:16 10° 255° (WSW) 5,211 13.4 1.9°
Maximum altitude 17:04:59 13° 231° (SW) 4,412 11.8 0.9°
Drops below altitude 10° 17:09:47 10° 207° (SSW) 4,193 11.0 0.1°
Sets 17:14:59 0° 181° (S) 4,587 10.7 -0.7°
